CAPE
509 617 628 721 506 501 709 848 790 734 759 773 854 981 1088 1052 835 688 718 850 954 992 1031 1070 1073 1068 990 862 678 410 254 230 223 240 298 227 79 127 309 170 3 0 0 0 0 2 0 0 5 0 0 0 0 0 0 0 0 0 0 0 0 0 0
513 803 806 504 760 969 935 816 762 798 811 797 829 967 1143 1217 1090 888 804 916 1088 1319 1382 1301 1179 1109 1020 920 773 574 442 316 200 34 5 0 14 71 31 6 208 142 0 0 0 0 0 0 0 14 31 0 0 0 0 0 0 0 0 0 0 0 0
828 747 787 625 671 980 1033 896 772 780 793 778 795 896 1080 1239 1243 1044 959 1134 1288 1418 1629 1589 1399 1214 1061 924 812 708 558 548 488 32 13 0 4 9 36 102 57 19 116 48 0 0 0 0 0 0 5 9 1 0 0 0 0 0 0 0 0 0 0
1123 986 752 627 572 678 1011 961 877 816 785 778 773 826 924 1092 1207 1112 1042 1099 1444 1621 1635 1587 1503 1390 1234 1066 886 793 686 574 527 551 512 357 0 0 243 314 286 222 214 0 5 0 0 0 0 0 0 10 24 10 0 0 0 0 0 0 0 0 0
1156 1225 1228 996 853 732 805 1000 988 929 878 840 794 811 900 1049 1207 1186 1109 1162 1292 1600 1710 1570 1461 1398 1308 1173 1064 974 846 650 508 466 469 460 355 0 0 106 274 252 191 0 0 0 0 0 0 0 0 0 2 0 0 0 0 0 0 0 0 0 0
1234 1247 1252 1267 1249 1117 831 911 980 978 967 913 865 842 847 958 1134 1206 1112 1031 1174 1352 1512 1482 1402 1438 1362 1242 1162 1111 999 811 707 560 423 105 26 0 0 0 0 0 1 0 0 0 0 0 0 0 0 0 8 3 0 0 0 0 0 0 0 0 0
1185 1258 1191 1214 1289 1316 1280 1159 1092 991 947 973 964 911 913 954 1006 1106 1104 1064 1146 1235 1206 1169 1234 1240 1459 1410 1322 1244 1202 1029 916 832 706 532 212 0 0 0 0 0 0 0 0 0 0 0 0 0 99 0 0 0 0 0 0 0 0 0 0 0 0
912 1094 1103 1130 1182 1205 1299 1402 1374 1216 1040 944 999 1037 979 945 984 976 1002 1031 1100 1134 1107 1023 935 1149 1372 1389 1398 1372 1298 1166 1071 995 919 847 656 423 0 0 0 0 0 0 0 0 0 0 86 18 149 369 16 0 0 0 0 0 27 0 0 0 0
642 806 928 982 1119 1194 1198 1228 1294 1266 1022 845 872 920 947 946 969 1003 969 985 1045 1067 1012 860 757 1002 1206 1230 1238 1278 1309 1236 1174 1081 983 893 840 692 345 2 1 2 0 0 0 234 0 0 0 260 338 7 31 26 0 2 0 4 5 10 0 0 0
588 658 727 771 847 1028 1137 1125 1034 938 870 852 828 723 775 935 964 978 1058 1078 1021 954 892 822 735 704 711 1017 1094 1106 1136 1151 1137 1095 1001 887 847 835 749 635 484 6 0 0 0 110 244 0 0 0 159 26 13 29 8 10 275 20 18 23 23 1 0
550 585 628 664 708 773 900 970 962 898 888 911 859 761 640 806 864 938 1002 1048 1028 994 981 962 829 700 598 601 784 967 955 957 972 991 959 903 820 786 806 812 776 555 0 0 0 0 40 0 0 0 0 6 4 108 15 30 57 1 7 2 21 12 0
691 682 630 590 571 614 678 721 725 781 765 801 830 831 807 800 817 860 922 967 969 1021 1068 1076 984 782 478 556 620 760 949 928 868 805 842 879 843 786 778 814 812 758 556 119 0 0 0 0 0 0 1 10 6 36 26 80 97 2 7 9 1 4 0
1107 1039 928 828 768 737 729 725 755 834 856 899 850 957 965 916 857 873 844 831 858 942 1021 1012 866 626 627 666 622 543 678 894 938 803 756 828 848 809 773 762 775 748 674 504 266 0 0 0 0 3 2 9 23 26 21 278 284 300 284 79 0 0 0
609 892 912 850 831 887 951 938 939 916 916 927 931 727 878 1079 1096 1052 1019 940 924 924 942 991 892 659 611 622 616 485 350 510 843 900 779 804 874 882 840 793 782 784 731 608 453 322 7 0 0 6 11 12 27 18 88 301 348 336 306 199 323 118 0
7 35 192 717 934 979 1003 1021 1055 962 923 976 958 919 863 780 850 857 937 983 924 920 787 897 865 773 604 559 423 350 316 429 685 764 716 733 866 974 997 925 880 891 846 747 576 435 340 270 48 45 45 40 40 46 200 292 334 298 306 312 352 330 260
237 216 226 258 759 1012 1086 1082 1072 1137 1244 1140 1027 971 996 955 862 795 808 656 433 385 489 640 756 748 868 795 483 316 348 471 620 607 614 666 743 863 966 988 960 932 908 835 708 562 441 359 367 238 131 85 74 53 39 238 278 306 308 365 418 424 339
321 359 383 383 369 354 537 576 564 595 698 943 1111 1056 954 982 940 875 770 629 397 402 416 493 460 460 730 900 783 636 562 535 589 596 585 626 689 765 822 907 936 935 918 842 745 670 587 503 384 431 453 374 138 92 336 337 322 290 340 394 444 461 411
398 411 394 412 426 438 393 396 556 574 546 572 670 787 838 884 889 843 772 662 576 590 728 660 566 594 834 823 746 802 805 678 617 599 527 504 551 619 744 818 859 910 919 837 758 725 695 612 506 405 484 528 576 470 379 378 360 352 359 405 462 488 456
435 399 385 410 431 437 506 591 318 544 764 828 826 866 961 1027 960 862 779 715 596 550 657 744 594 628 774 879 759 751 816 805 733 675 635 594 547 551 615 722 781 828 934 829 830 750 717 673 614 513 486 536 573 531 435 338 212 418 437 441 460 501 499
405 394 380 412 448 474 520 710 716 463 450 956 1055 1076 1166 1207 1155 968 851 822 776 686 580 660 667 633 749 907 900 627 571 670 712 736 741 713 657 629 650 690 720 710 794 864 860 786 701 696 656 625 572 542 571 618 592 586 566 524 520 538 549 558 564
392 402 421 458 473 516 574 654 753 754 635 739 945 1037 1095 1112 1091 949 810 735 740 754 715 654 648 686 691 796 880 595 480 544 601 615 661 726 790 782 751 748 744 677 688 770 830 779 745 690 648 658 671 623 577 592 631 642 624 634 619 617 618 627 604
400 373 427 501 484 506 526 559 638 749 737 679 794 947 1015 1043 985 865 758 691 679 692 722 692 690 831 883 850 906 990 903 798 779 719 657 680 772 855 812 785 724 634 640 728 791 832 751 727 647 626 686 701 675 607 615 638 655 656 650 618 618 606 611
387 277 307 462 459 464 450 517 494 564 762 734 663 658 713 766 756 703 655 637 640 663 717 720 745 857 966 1021 1024 1014 990 900 846 801 749 719 758 829 807 701 612 619 650 708 774 816 776 700 700 638 647 692 717 720 680 636 632 653 656 617 622 626 645
329 220 0 338 410 397 401 360 386 392 503 672 748 653 602 585 597 600 614 627 637 607 685 760 791 870 949 993 988 995 1012 951 842 762 766 750 785 818 860 663 578 616 696 718 729 761 725 655 696 710 717 667 701 754 758 711 686 678 657 631 650 646 655
0 0 0 0 0 122 256 316 323 373 418 552 602 766 733 620 549 533 524 511 524 576 630 690 729 806 869 905 895 851 808 758 741 774 825 856 824 795 716 555 565 605 692 722 719 725 689 649 637 687 734 753 755 802 825 809 746 711 658 635 618 592 606
0 0 0 0 0 0 0 238 324 348 401 477 557 556 717 688 614 535 526 499 454 441 468 510 515 613 708 792 823 865 889 816 758 668 704 837 885 876 718 751 717 679 730 810 752 722 705 670 654 684 723 744 746 837 898 942 970 872 728 614 547 556 562
0 0 0 0 0 0 0 238 291 273 317 415 458 493 504 560 612 639 615 551 455 385 376 387 387 380 397 409 418 413 424 468 468 459 606 792 915 971 997 932 868 858 858 913 828 753 730 692 669 692 707 714 719 772 858 890 906 948 844 725 536 494 554
0 0 0 0 0 0 0 0 122 193 236 334 382 413 443 459 505 554 629 628 545 430 388 373 366 366 383 395 390 368 318 294 306 345 430 519 530 700 867 942 968 975 992 962 856 766 755 729 712 690 688 688 697 739 757 799 847 886 892 864 796 703 625
0 0 0 0 0 0 0 0 0 0 0 222 281 346 398 418 446 515 533 512 548 518 460 432 380 362 379 423 453 420 375 354 298 266 310 316 360 342 308 294 247 442 761 860 810 800 810 794 772 749 729 690 663 636 644 675 722 788 841 823 821 789 750
0 0 0 0 0 0 0 0 0 0 84 182 220 252 341 412 448 458 465 473 479 467 454 482 500 477 438 384 330 275 261 210 88 108 0 177 336 435 448 346 280 355 473 696 740 759 766 958 899 828 745 674 626 613 586 654 696 707 740 803 820 802 776
0 0 0 0 0 0 1 2 3 0 0 117 166 232 250 338 393 418 417 431 437 430 459 458 426 423 439 455 356 268 222 181 46 2 15 32 116 241 334 424 475 588 635 614 640 612 735 744 874 825 761 641 576 512 485 551 605 636 712 729 744 778 772
0 0 0 0 0 0 0 0 0 0 0 19 47 155 158 182 283 316 358 415 442 444 431 384 373 383 423 414 346 277 243 191 62 20 22 50 32 88 184 299 378 476 610 612 587 694 722 677 648 844 740 726 607 503 535 582 550 539 582 617 632 685 695
0 0 0 0 0 0 0 0 0 0 0 0 40 67 6 164 191 209 244 286 343 388 398 401 356 369 404 436 404 325 258 209 50 20 0 0 2 15 53 159 318 366 427 555 553 563 552 540 583 731 833 754 611 509 499 523 497 523 518 500 521 483 431
0 0 0 0 0 0 0 0 0 0 0 0 0 0 0 70 160 177 165 166 204 279 278 283 275 288 298 330 335 293 248 195 164 84 6 7 1 0 0 6 66 94 189 340 375 487 616 597 584 764 710 730 719 680 665 545 483 489 454 450 396 381 364
0 0 0 0 0 0 0 0 0 0 0 0 0 0 0 0 0 57 154 152 152 167 175 168 202 221 224 240 241 291 302 284 201 115 2 0 7 10 0 0 0 46 180 290 375 448 518 595 658 677 610 601 673 738 750 637 538 445 399 444 450 410 430
0 0 0 0 0 0 0 0 0 0 0 0 0 0 0 0 0 0 0 0 38 58 112 33 0 0 64 160 211 226 252 270 280 187 34 2 1 0 2 11 16 10 41 99 224 344 394 377 338 278 326 540 637 681 708 660 548 486 439 429 438 424 441
0 0 0 0 0 0 0 0 0 0 0 0 0 0 0 0 0 0 0 0 0 0 0 0 0 0 0 0 0 169 240 260 251 218 70 6 7 4 3 0 0 0 0 0 10 105 25 174 234 269 338 405 466 560 644 640 592 539 543 509 504 402 372
Wind_Speed
30 31 30 31 32 30 29 33 39 35 34 31 28 29 33 36 36 35 35 34 32 31 28 25 24 24 24 23 23 21 20 17 15 13 11 11 nan 8 10 8 nan nan nan nan nan nan nan nan nan nan nan nan nan nan nan nan nan nan nan nan nan nan nan
34 34 31 30 31 32 32 35 34 35 34 32 29 27 31 36 38 37 36 34 33 31 28 26 25 24 21 22 23 24 21 19 16 nan nan nan nan nan nan nan 8 7 nan nan nan nan nan nan nan nan nan nan nan nan nan nan nan nan nan nan nan nan nan
38 34 32 32 34 34 35 36 36 35 33 33 32 29 31 37 39 38 36 34 32 32 30 27 26 24 22 21 22 23 22 19 17 nan nan nan nan nan nan 12 nan nan 10 nan nan nan nan nan nan nan nan nan nan nan nan nan nan nan nan nan nan nan nan
39 36 33 32 35 34 31 32 36 36 33 31 33 31 31 36 39 37 35 33 34 34 32 30 27 25 24 23 23 23 21 19 19 18 17 18 nan nan 16 13 9 8 7 nan nan nan nan nan nan nan nan nan nan nan nan nan nan nan nan nan nan nan nan
39 39 36 33 34 33 31 27 28 31 31 30 31 31 30 34 38 36 35 33 32 33 32 32 33 32 31 28 26 23 22 21 23 23 21 20 22 nan nan 14 11 8 6 nan nan nan nan nan nan nan nan nan nan nan nan nan nan nan nan nan nan nan nan
39 37 37 37 38 36 34 32 29 26 28 28 28 27 26 29 34 34 34 33 32 33 40 43 40 37 36 32 28 26 25 26 27 26 23 20 nan nan nan nan nan nan nan nan nan nan nan nan nan nan nan nan nan nan nan nan nan nan nan nan nan nan nan
40 38 38 39 39 38 37 36 33 29 27 26 26 24 25 28 31 32 34 36 39 41 42 38 36 34 35 33 30 29 28 28 28 24 21 20 20 nan nan nan nan nan nan nan nan nan nan nan nan nan nan nan nan nan nan nan nan nan nan nan nan nan nan
38 39 40 40 40 39 40 39 37 33 30 28 27 26 29 31 32 34 37 38 38 39 39 35 34 35 36 36 34 32 30 28 26 24 23 21 19 18 nan nan nan nan nan nan nan nan nan nan nan nan 9 3 nan nan nan nan nan nan nan nan nan nan nan
37 38 40 42 42 40 39 40 38 36 35 34 34 32 30 31 34 37 39 37 37 43 47 46 48 49 46 42 39 36 30 31 28 24 24 23 20 18 17 nan nan nan nan nan nan 9 nan nan nan 12 9 nan nan nan nan nan nan nan nan nan nan nan nan
36 37 38 40 42 41 40 40 39 38 37 37 35 36 35 34 34 35 35 36 40 42 41 38 42 40 37 42 41 39 34 34 34 30 28 26 23 22 21 18 16 nan nan nan nan 11 10 nan nan nan 9 nan nan nan nan nan 2 nan nan nan nan nan nan
36 37 39 40 44 45 43 41 41 40 37 34 36 39 40 36 33 30 31 34 40 41 38 37 38 36 37 42 42 41 39 38 35 34 30 27 26 26 23 21 20 18 nan nan nan nan nan nan nan nan nan nan nan 3 nan nan nan nan nan nan nan nan nan
39 39 40 41 45 46 44 44 42 40 40 40 39 39 40 41 38 34 32 34 37 38 38 37 40 41 42 39 42 45 44 41 37 33 32 31 30 29 25 22 21 20 22 20 nan nan nan nan nan nan nan nan nan nan nan nan nan nan nan nan nan nan nan
40 37 37 38 41 42 45 46 43 39 37 41 43 43 42 41 41 41 38 34 32 35 38 39 41 40 37 37 42 47 45 44 39 35 34 34 34 32 28 24 23 23 25 25 21 nan nan nan nan nan nan nan nan nan nan 7 6 1 10 nan nan nan nan
43 41 39 38 39 41 42 42 42 41 43 41 42 41 40 41 42 41 40 37 33 34 37 40 42 39 37 37 41 44 44 46 40 36 37 35 35 34 32 28 25 24 26 25 25 24 nan nan nan nan nan nan nan nan nan 7 7 3 9 10 11 12 nan
nan nan 44 42 39 40 41 42 43 47 45 44 44 40 37 37 38 39 39 39 35 35 38 40 40 39 37 37 38 41 43 46 42 35 37 35 35 37 36 33 28 26 27 25 26 26 25 23 nan nan nan nan nan nan 10 9 6 9 5 13 10 12 13
48 49 49 48 44 42 42 42 44 45 44 45 44 41 38 38 39 38 38 31 30 34 35 35 39 38 37 36 37 38 40 42 41 37 35 34 35 39 39 36 31 31 32 28 27 28 28 24 23 21 20 nan nan nan nan 10 11 10 10 10 14 13 13
52 52 52 50 47 44 42 41 42 43 45 48 46 43 39 38 38 36 33 31 33 30 26 26 32 35 33 35 36 36 37 38 40 39 33 31 36 41 40 37 33 32 33 30 29 29 29 27 25 23 22 23 23 nan 20 17 12 13 14 12 15 15 15
53 54 54 52 49 47 44 41 41 41 45 47 46 45 43 42 41 40 36 33 34 33 31 31 33 34 33 34 35 35 34 35 40 42 36 30 33 38 39 37 33 34 34 30 29 29 29 27 26 26 24 24 25 26 27 24 18 16 16 13 15 18 18
53 54 53 51 50 48 45 43 41 41 44 46 47 47 45 44 43 43 43 41 40 38 37 36 35 34 34 34 33 34 33 32 35 41 42 37 34 35 36 35 33 35 34 30 27 27 28 27 27 27 26 27 27 29 28 28 26 21 17 14 16 18 20
49 51 51 51 49 47 45 44 42 40 44 46 47 48 48 45 44 44 45 48 47 43 40 40 39 37 36 35 34 37 37 33 31 33 37 36 32 30 32 35 34 32 31 28 26 27 28 28 29 26 26 28 30 30 29 29 30 27 22 19 17 18 19
44 47 49 49 49 47 45 45 44 42 44 46 46 47 47 44 44 46 46 49 50 49 47 45 42 38 35 33 34 34 35 35 32 29 29 30 30 29 30 35 37 33 28 24 23 26 29 30 30 27 27 30 32 32 29 29 31 30 27 24 21 20 21
42 45 46 47 47 46 45 44 43 43 44 46 46 48 48 46 45 46 46 47 50 50 48 44 42 40 38 35 32 29 30 34 35 32 30 28 30 28 27 33 40 38 31 23 18 21 24 27 30 28 27 30 33 34 33 31 30 30 30 28 25 26 26
41 42 43 43 42 42 43 42 43 43 43 44 47 48 48 47 45 45 46 47 48 49 47 45 40 35 37 39 37 32 29 30 34 34 32 30 30 28 25 29 36 34 31 27 24 23 23 23 23 25 27 31 32 34 34 33 31 30 30 29 27 29 28
37 39 nan 39 39 40 41 41 41 41 41 43 44 46 46 46 46 46 46 47 48 48 47 46 39 39 38 38 43 42 35 30 28 27 28 29 30 29 27 27 31 32 32 31 30 28 28 27 25 22 20 25 30 33 35 34 31 30 30 28 28 30 29
nan nan nan nan nan 38 40 41 41 40 39 40 41 42 43 43 45 47 47 47 47 47 46 43 39 41 41 40 44 47 45 38 32 28 25 26 29 31 30 30 31 34 35 33 32 33 33 30 28 25 24 26 28 28 31 34 32 30 29 26 26 28 28
nan nan nan nan nan nan nan 40 41 40 39 38 39 40 40 41 43 46 47 46 45 46 46 42 40 40 41 41 43 49 49 46 41 37 33 30 30 31 30 30 32 34 35 29 29 32 35 35 32 26 26 29 31 32 32 29 28 29 29 25 24 24 25
nan nan nan nan nan nan nan 37 36 35 36 37 39 39 40 40 41 43 45 45 46 47 46 44 41 39 39 39 40 48 51 46 43 41 39 37 36 35 32 31 32 34 36 35 34 32 33 35 36 34 32 34 36 33 33 32 30 25 26 26 25 21 21
nan nan nan nan nan nan nan nan 34 34 34 35 38 39 40 41 41 43 44 45 46 47 48 45 44 41 40 39 40 48 48 44 42 40 39 37 37 38 38 38 37 34 34 34 36 34 35 35 36 36 35 37 37 36 35 36 36 34 30 29 25 22 20
nan nan nan nan nan nan nan nan nan nan nan 37 39 39 40 42 43 44 45 46 47 46 48 48 48 46 44 44 45 50 48 44 40 39 38 38 36 36 37 38 37 35 31 30 30 30 32 36 38 38 37 38 40 39 36 34 33 34 32 30 28 24 23
nan nan nan nan nan nan nan nan nan nan nan 42 44 48 48 47 48 49 48 48 48 48 50 52 54 54 51 49 52 52 48 45 nan 37 nan 37 37 37 38 38 36 34 30 29 32 32 31 33 37 38 39 39 41 42 39 39 35 32 32 29 24 21 20
nan nan nan nan nan nan nan nan nan nan nan 43 46 48 48 49 50 50 51 52 52 53 55 61 72 74 70 63 56 53 51 48 nan nan nan nan 38 39 39 36 36 37 34 33 36 35 33 36 38 37 38 39 41 42 41 39 41 39 34 31 27 24 25
nan nan nan nan nan nan nan nan nan nan nan nan nan 47 49 50 50 51 51 52 55 55 55 60 69 72 74 75 69 59 55 50 nan nan nan nan nan nan 40 40 35 36 35 33 33 36 34 38 41 38 36 38 41 44 43 40 38 38 41 41 40 39 36
nan nan nan nan nan nan nan nan nan nan nan nan nan nan nan 51 53 53 52 53 54 54 53 55 61 68 73 74 73 66 65 62 nan nan nan nan nan nan nan 41 39 35 34 31 29 28 32 36 40 40 39 39 43 44 45 40 38 42 41 40 41 43 40
nan nan nan nan nan nan nan nan nan nan nan nan nan nan nan nan 52 54 53 53 53 55 54 54 55 62 67 73 74 72 65 67 68 nan nan nan nan nan nan nan nan nan 35 33 30 27 28 32 36 42 41 40 42 44 45 43 42 42 43 44 44 46 48
nan nan nan nan nan nan nan nan nan nan nan nan nan nan nan nan nan nan 53 53 54 53 55 56 54 56 61 65 70 72 66 64 66 65 nan nan nan nan nan nan nan nan 37 34 33 31 29 29 31 39 39 36 35 36 39 42 46 47 50 50 48 49 51
nan nan nan nan nan nan nan nan nan nan nan nan nan nan nan nan nan nan nan nan nan nan 54 nan nan nan nan 59 63 65 64 63 64 65 nan nan nan nan nan nan nan nan nan nan 36 34 31 28 32 35 34 38 38 36 37 42 45 47 50 52 52 50 51
nan nan nan nan nan nan nan nan nan nan nan nan nan nan nan nan nan nan nan nan nan nan nan nan nan nan nan nan nan 60 61 62 64 63 nan nan nan nan nan nan nan nan nan nan nan 40 nan 35 37 34 36 36 42 45 47 46 47 48 51 52 52 52 53
Wind_Direction
245 248 251 248 250 248 247 250 251 248 245 246 248 246 238 232 230 227 224 224 227 225 216 207 215 224 228 230 235 236 234 230 226 225 230 240 nan 233 233 229 nan nan nan nan nan nan nan nan nan nan nan nan nan nan nan nan nan nan nan nan nan nan nan
246 242 238 249 259 255 253 251 255 255 251 246 245 247 241 232 226 223 221 220 223 225 223 216 216 225 233 238 240 239 237 232 230 nan nan nan nan nan nan nan 226 227 nan nan nan nan nan nan nan nan nan nan nan nan nan nan nan nan nan nan nan nan nan
247 245 245 242 238 244 254 253 252 254 254 250 245 247 246 233 224 222 218 217 220 221 221 222 224 227 230 235 244 247 247 245 237 nan nan nan nan nan nan 250 nan nan 222 nan nan nan nan nan nan nan nan nan nan nan nan nan nan nan nan nan nan nan nan
245 246 243 240 242 241 249 251 250 249 251 254 251 251 250 235 224 223 220 218 219 220 221 224 225 229 232 234 236 244 252 254 245 240 232 231 nan nan 239 242 240 239 245 nan nan nan nan nan nan nan nan nan nan nan nan nan nan nan nan nan nan nan nan
243 244 243 244 245 247 248 249 250 250 248 251 254 257 252 233 222 221 221 221 222 223 226 228 228 227 228 231 233 237 242 248 246 244 239 234 236 nan nan 235 237 236 234 nan nan nan nan nan nan nan nan nan nan nan nan nan nan nan nan nan nan nan nan
243 243 244 244 244 246 246 243 249 254 249 247 250 257 248 231 223 222 223 224 224 225 226 226 227 231 229 227 229 231 236 242 245 245 242 242 nan nan nan nan nan nan nan nan nan nan nan nan nan nan nan nan nan nan nan nan nan nan nan nan nan nan nan
242 243 242 243 242 243 243 244 249 253 253 253 250 244 237 230 227 229 229 231 230 232 239 237 237 238 239 235 232 232 234 238 244 248 245 244 243 nan nan nan nan nan nan nan nan nan nan nan nan nan nan nan nan nan nan nan nan nan nan nan nan nan nan
245 242 240 241 241 241 243 245 247 248 248 247 249 243 229 221 227 233 234 236 237 238 242 243 242 243 242 238 236 236 236 238 244 247 245 245 243 244 nan nan nan nan nan nan nan nan nan nan nan nan 275 267 nan nan nan nan nan nan nan nan nan nan nan
246 242 238 238 240 241 242 245 246 244 241 238 238 240 239 237 233 233 236 236 235 235 233 228 227 227 227 229 232 235 236 236 240 243 242 244 242 244 249 nan nan nan nan nan nan 247 nan nan nan 263 273 nan nan nan nan nan nan nan nan nan nan nan nan
246 244 241 239 240 240 240 242 242 240 237 236 236 238 239 239 240 240 238 236 240 245 250 247 242 235 229 229 230 232 233 234 235 235 236 238 238 237 239 249 249 nan nan nan nan 248 252 nan nan nan 270 nan nan nan nan nan 336 nan nan nan nan nan nan
245 244 241 237 237 238 238 238 238 238 238 238 238 237 238 241 245 247 244 241 242 243 247 249 249 248 242 233 230 231 232 235 235 235 237 239 241 240 237 240 246 248 nan nan nan nan nan nan nan nan nan nan nan 316 nan nan nan nan nan nan nan nan nan
241 241 241 238 237 238 238 237 237 236 234 235 237 239 241 243 245 245 244 244 247 248 248 247 246 243 243 239 237 235 233 233 232 233 237 241 244 247 245 242 245 248 254 257 nan nan nan nan nan nan nan nan nan nan nan nan nan nan nan nan nan nan nan
237 238 240 241 240 240 241 241 241 240 239 239 238 237 239 242 245 245 245 248 251 250 249 249 250 250 250 245 241 239 236 235 232 230 233 239 243 247 248 246 245 248 253 256 259 nan nan nan nan nan nan nan nan nan nan 271 290 304 290 nan nan nan nan
231 232 232 237 238 238 240 239 238 237 238 240 241 241 242 243 242 242 243 248 255 255 253 253 252 252 254 251 244 242 242 241 237 232 232 236 243 246 248 246 243 244 250 255 258 261 nan nan nan nan nan nan nan nan nan 269 279 270 250 273 291 307 nan
nan nan 227 231 235 235 236 236 235 233 236 239 243 244 243 244 244 244 242 238 241 244 248 251 254 254 256 252 241 240 247 246 241 239 239 236 241 246 248 249 244 241 244 248 254 260 263 263 nan nan nan nan nan nan 254 258 262 266 267 259 277 281 289
225 223 223 225 230 232 233 231 232 232 232 237 242 245 245 244 244 245 247 247 248 243 240 242 245 246 249 251 241 238 248 248 240 241 246 242 241 243 244 248 248 244 241 239 244 252 257 263 263 256 248 nan nan nan nan 253 251 258 268 269 272 279 290
221 220 219 221 223 227 232 231 231 230 228 232 238 241 244 244 242 239 239 240 241 244 245 243 248 251 249 249 244 240 248 248 236 234 241 243 242 240 240 244 246 248 246 239 236 243 251 258 264 259 252 249 248 nan 248 247 246 249 258 266 267 281 282
220 217 216 217 219 220 224 229 231 231 230 231 231 235 237 237 236 235 234 235 241 244 245 242 242 244 245 246 246 244 249 249 237 230 232 239 244 241 237 240 244 248 250 246 239 240 246 254 259 261 258 253 252 250 247 248 245 243 248 263 264 267 274
219 217 216 216 218 219 221 225 226 227 231 233 231 232 236 234 232 232 233 236 241 243 244 246 247 249 252 254 253 249 249 249 242 235 236 240 246 246 240 238 242 249 251 252 247 245 246 250 253 258 261 260 256 252 250 248 248 246 244 247 258 261 266
220 218 217 217 218 220 221 223 227 227 229 233 233 232 235 235 233 231 231 236 241 244 245 248 252 255 257 259 256 251 248 249 249 244 241 241 244 249 245 236 237 246 251 251 251 251 252 251 251 253 258 260 260 257 254 251 250 249 246 243 246 256 263
218 217 217 217 218 219 221 221 223 227 230 233 233 233 235 237 236 235 232 235 241 244 246 248 251 253 253 255 258 257 254 254 254 250 245 245 247 253 248 234 231 239 246 248 253 254 253 252 252 250 250 254 259 260 257 253 252 251 248 245 247 250 256
216 216 216 217 218 219 220 222 223 224 229 232 231 231 232 233 232 233 234 235 237 240 243 245 245 245 245 249 254 259 259 259 256 247 243 245 249 253 248 234 229 236 243 246 255 257 256 256 255 254 251 252 255 259 258 256 255 254 249 248 244 247 252
214 215 216 216 219 221 223 226 226 224 225 229 231 231 231 232 232 232 233 234 237 239 241 242 246 250 250 248 250 252 256 257 254 247 242 241 242 244 243 233 228 234 243 246 248 253 258 260 263 260 255 254 255 257 259 259 259 258 255 251 248 250 252
215 216 nan 219 222 224 225 227 227 227 226 227 231 235 236 235 234 234 233 234 236 240 241 242 244 248 249 250 248 249 250 250 251 252 251 248 243 241 238 231 228 231 238 241 243 250 256 261 261 259 257 259 259 259 257 260 259 260 259 254 249 251 252
nan nan nan nan nan 226 227 227 226 225 226 230 231 237 239 239 239 238 237 235 235 237 240 240 239 240 244 246 246 245 245 245 248 254 257 255 251 244 237 233 230 231 236 240 240 242 248 253 256 255 253 251 249 255 263 263 260 258 259 256 253 254 253
nan nan nan nan nan nan nan 227 225 224 224 229 235 237 239 240 241 241 241 239 236 236 237 239 240 241 243 244 244 247 245 244 245 249 254 254 252 249 243 236 232 232 234 239 241 240 244 248 251 250 247 250 249 243 240 251 266 265 259 259 257 257 262
nan nan nan nan nan nan nan 230 228 228 229 231 234 236 239 240 241 242 243 242 238 235 235 236 239 239 242 244 245 248 245 244 243 244 246 247 248 250 248 241 234 230 230 233 237 239 241 243 245 244 241 243 246 246 247 244 240 247 257 258 261 261 261
nan nan nan nan nan nan nan nan 231 232 232 233 234 235 236 239 240 241 240 240 239 235 233 230 234 237 238 239 241 248 246 247 243 240 240 242 243 242 239 235 235 231 229 229 232 237 238 238 238 239 240 242 243 243 244 245 248 249 247 249 255 256 253
nan nan nan nan nan nan nan nan nan nan nan 234 235 238 238 242 241 239 238 238 239 236 232 227 228 229 230 232 236 242 242 242 240 237 236 235 238 241 240 237 234 237 235 230 228 234 238 236 234 235 238 239 238 237 239 243 248 250 250 248 247 249 248
nan nan nan nan nan nan nan nan nan nan nan 237 236 236 237 239 240 238 236 236 234 235 233 230 228 228 228 227 232 240 239 238 nan 234 nan 234 235 237 238 240 240 239 241 238 233 232 235 240 235 236 237 237 234 230 230 235 241 247 251 251 246 240 238
nan nan nan nan nan nan nan nan nan nan nan 241 239 237 237 239 240 239 237 236 233 231 232 229 228 228 226 224 229 236 237 236 nan nan nan nan 239 239 242 249 249 245 242 242 247 241 234 240 239 237 237 236 230 226 226 230 234 239 247 249 247 243 238
nan nan nan nan nan nan nan nan nan nan nan nan nan 242 239 239 239 240 239 237 232 231 231 230 230 230 232 232 231 232 232 236 nan nan nan nan nan nan 245 250 255 252 246 241 251 252 249 247 243 242 240 237 229 225 227 230 233 237 240 240 237 237 233
nan nan nan nan nan nan nan nan nan nan nan nan nan nan nan 241 239 240 239 237 237 234 231 230 230 229 231 232 232 234 233 228 nan nan nan nan nan nan nan 243 247 255 256 251 250 252 249 253 249 249 247 240 232 227 230 232 235 240 242 242 238 238 236
nan nan nan nan nan nan nan nan nan nan nan nan nan nan nan nan 240 240 240 238 237 235 233 229 230 229 230 233 234 233 234 233 229 nan nan nan nan nan nan nan nan nan 252 251 251 254 253 250 250 248 247 240 236 232 233 232 236 244 243 244 242 238 237
nan nan nan nan nan nan nan nan nan nan nan nan nan nan nan nan nan nan 239 239 237 235 232 229 230 229 229 232 235 233 235 234 231 229 nan nan nan nan nan nan nan nan 243 248 248 251 257 256 254 248 247 248 244 242 237 232 234 238 242 244 244 241 240
nan nan nan nan nan nan nan nan nan nan nan nan nan nan nan nan nan nan nan nan nan nan 234 nan nan nan nan 230 230 231 232 233 229 231 nan nan nan nan nan nan nan nan nan nan 242 241 244 251 250 246 246 243 242 242 238 232 233 235 238 242 244 245 244
nan nan nan nan nan nan nan nan nan nan nan nan nan nan nan nan nan nan nan nan nan nan nan nan nan nan nan nan nan 226 227 228 230 231 nan nan nan nan nan nan nan nan nan nan nan 231 nan 244 248 249 245 238 239 240 239 236 236 236 238 240 242 244 245